sat.trackr.live / text

‹ back to catalog

ONEWEB-0034

NORAD 45454 · 2020-020AG

PAYLOAD ACTIVE UNKNOWN

§ Identity

Operator
Country
UK
Launch date
2020-03-21
Launch site
TYMSC
Launch vehicle
Mass (kg)
RCS (m²)

Purposes: comms

External: N2YO · Heavens-Above · Gunter

§ Orbital elements

Epoch: 2026-09-20T04:58:51.227040Z

Period
109.81 min
Inclination
87.8976°
Eccentricity
0.0001867
Mean motion
13.11414533 rev/d
Perigee alt
1,216.3 km
Apogee alt
1,219.1 km
Semi-major
7,595.8 km
B*
3.4083e-4
RAAN
2.1866°
Arg perigee
103.0512°
Mean anomaly
257.0824°
Rev number
31,504

§ Raw data

ONEWEB-00341 45454U 20020AG  26263.20753735  .00000133  00000+0  34083-3 0  99942 45454  87.8976   2.1866 0001867 103.0512 257.0824 13.11414533315043

JSON: /api/v1/satellites/45454 · /tle

For live sub-satellite position, see the globe view (requires WebGL).

§ Visibility from observer

Set your observer location to see the next 7 days of passes ≥ 10°. The values pass through the URL so the page stays shareable.

No JS? Fill the form by hand. The geolocation button needs JavaScript.